Change the Weather History Date:

Sunday, May 18, 2014

  Actual Average (KOTM) Record (KOTM)
Temperature  
Mean Temperature 56 °F 62 °F  
Max Temperature 71 °F 73 °F 92 °F (1962)
Min Temperature 41 °F 51 °F 34 °F (2002)
Degree Days  
Heating Degree Days 9 5  
Month to date heating degree days 122  
Since 1 July heating degree days 6252  
Cooling Degree Days 0 2  
Month to date cooling degree days 21  
Year to date cooling degree days 32  
Growing Degree Days 6 (Base 50)    
Moisture  
Dew Point 38 °F    
Average Humidity 52    
Maximum Humidity 80    
Minimum Humidity 27    
Precipitation  
Precipitation 0.00 in 0.15 in 2.23 in (1927)
Month to date precipitation 2.66  
Year to date precipitation 10.48  
Sea Level Pressure  
Sea Level Pressure 30.15 in    
Wind  
Wind Speed 10 mph (South)    
Max Wind Speed 22 mph    
Max Gust Speed 25 mph    
Visibility 10 miles    
Events      
T = Trace of Precipitation, MM = Missing Value Source: NWS Daily Summary

Daily Weather History Graph

Daily Weather History Graph

Search for Another Location

Airport or City:

Trip Planner

Search our weather history database for the weather conditions in past years. The results will help you decide how hot, cold, wet, or windy it might be!

Date:

Astronomy

May. 18, 2014 Rise Set
Actual Time 5:48 AM CDT 8:24 PM CDT
Civil Twilight 5:17 AM CDT 8:56 PM CDT
Nautical Twilight 4:37 AM CDT 9:36 PM CDT
Astronomical Twilight 3:52 AM CDT 10:21 PM CDT
Moon No Moon Rise 9:38 AM CDT (5/18)
Length of Visible Light 15h 39m
Length of Day
14h 35m
Waning Gibbous, 81% of the Moon is Illuminated
May 18
Waning Gibbous
May 21
Last Quarter
May 28
New
Jun 5
First Quarter
Jun 12
Full

Hourly Weather History & Observations

Time (CDT) Temp. Windchill Dew Point Humidity Pressure Visibility Wind Dir Wind Speed Gust Speed Precip Events Conditions
12:15 AM 45.5 °F 41.3 °F 37.6 °F 74% 30.17 in 10.0 mi South 8.1 mph - N/A   Clear
12:35 AM 45.5 °F 41.3 °F 37.6 °F 74% 30.17 in 10.0 mi South 8.1 mph - N/A   Clear
12:55 AM 44.8 °F 40.4 °F 37.4 °F 75% 30.17 in 10.0 mi South 8.1 mph - N/A   Clear
1:15 AM 44.1 °F 39.5 °F 37.4 °F 77% 30.17 in 10.0 mi South 8.1 mph - N/A   Clear
1:35 AM 43.9 °F 39.3 °F 37.4 °F 78% 30.17 in 10.0 mi South 8.1 mph - N/A   Clear
1:55 AM 43.9 °F 39.9 °F 36.7 °F 76% 30.17 in 10.0 mi South 6.9 mph - N/A   Clear
2:15 AM 42.8 °F 39.3 °F 36.5 °F 78% 30.17 in 10.0 mi South 5.8 mph - N/A   Clear
2:35 AM 43.2 °F 39.0 °F 36.5 °F 77% 30.17 in 10.0 mi South 6.9 mph - N/A   Clear
2:55 AM 42.8 °F 38.6 °F 36.5 °F 78% 30.17 in 10.0 mi South 6.9 mph - N/A   Clear
3:15 AM 42.4 °F 38.1 °F 36.5 °F 79% 30.17 in 10.0 mi South 6.9 mph - N/A   Clear
3:35 AM 42.4 °F 38.1 °F 36.3 °F 79% 30.17 in 10.0 mi South 6.9 mph - N/A   Clear
3:55 AM 42.8 °F 40.1 °F 36.1 °F 77% 30.17 in 10.0 mi SSW 4.6 mph - N/A   Clear
4:15 AM 43.2 °F 39.0 °F 35.4 °F 74% 30.17 in 10.0 mi SSW 6.9 mph - N/A   Clear
4:35 AM 43.7 °F 39.7 °F 35.2 °F 72% 30.18 in 10.0 mi SW 6.9 mph - N/A   Clear
4:55 AM 43.7 °F 40.3 °F 35.4 °F 73% 30.18 in 10.0 mi SW 5.8 mph - N/A   Clear
5:15 AM 42.4 °F 38.1 °F 35.1 °F 75% 30.18 in 10.0 mi SSW 6.9 mph - N/A   Clear
5:35 AM 42.1 °F 37.7 °F 35.6 °F 78% 30.19 in 10.0 mi SSW 6.9 mph - N/A   Clear
5:55 AM 41.9 °F 38.2 °F 35.8 °F 79% 30.19 in 10.0 mi SSW 5.8 mph - N/A   Clear
6:15 AM 42.1 °F 38.4 °F 36.3 °F 80% 30.19 in 10.0 mi SSW 5.8 mph - N/A   Clear
6:35 AM 43.3 °F 39.9 °F 37.6 °F 80% 30.19 in 10.0 mi SSW 5.8 mph - N/A   Clear
6:55 AM 45.3 °F 43.0 °F 39.4 °F 80% 30.20 in 10.0 mi SW 4.6 mph - N/A   Clear
7:15 AM 47.3 °F - 40.1 °F 76% 30.21 in 10.0 mi SSW 5.8 mph - N/A   Clear
7:35 AM 49.3 °F - 40.3 °F 71% 30.21 in 10.0 mi SW 6.9 mph - N/A   Clear
7:55 AM 50.7 °F - 40.6 °F 68% 30.21 in 10.0 mi SW 8.1 mph - N/A   Clear
8:15 AM 52.9 °F - 41.7 °F 66% 30.21 in 10.0 mi SW 8.1 mph - N/A   Clear
8:35 AM 54.9 °F - 41.7 °F 61% 30.22 in 10.0 mi WSW 8.1 mph - N/A   Clear
8:55 AM 56.8 °F - 41.5 °F 57% 30.22 in 10.0 mi SW 8.1 mph - N/A   Clear
9:15 AM 58.8 °F - 41.4 °F 52% 30.22 in 10.0 mi SW 9.2 mph - N/A   Clear
9:35 AM 60.8 °F - 41.0 °F 48% 30.22 in 10.0 mi SW 9.2 mph - N/A   Clear
9:55 AM 62.1 °F - 41.0 °F 46% 30.22 in 10.0 mi SW 10.4 mph - N/A   Clear
10:15 AM 62.8 °F - 39.4 °F 42% 30.22 in 10.0 mi WSW 6.9 mph - N/A   Clear
10:35 AM 64.2 °F - 39.2 °F 40% 30.22 in 10.0 mi WSW 6.9 mph - N/A   Clear
10:55 AM 64.8 °F - 37.6 °F 37% 30.22 in 10.0 mi SW 10.4 mph - N/A   Clear
11:15 AM 65.3 °F - 38.1 °F 37% 30.21 in 10.0 mi SW 9.2 mph - N/A   Clear
11:35 AM 65.7 °F - 36.9 °F 35% 30.20 in 10.0 mi SSW 11.5 mph - N/A   Clear
11:55 AM 66.0 °F - 36.7 °F 34% 30.20 in 10.0 mi South 9.2 mph - N/A   Clear
12:15 PM 67.3 °F - 36.7 °F 32% 30.19 in 10.0 mi South 10.4 mph 18.4 mph N/A   Clear
12:35 PM 68.0 °F - 37.0 °F 32% 30.19 in 10.0 mi SSW 15.0 mph 19.6 mph N/A   Clear
12:55 PM 68.5 °F - 36.9 °F 31% 30.18 in 10.0 mi South 13.8 mph 19.6 mph N/A   Clear
1:15 PM 69.3 °F - 37.0 °F 31% 30.17 in 10.0 mi South 11.5 mph 21.9 mph N/A   Clear
1:35 PM 68.9 °F - 37.4 °F 32% 30.17 in 10.0 mi SSE 18.4 mph 24.2 mph N/A   Scattered Clouds
1:55 PM 69.3 °F - 37.9 °F 32% 30.16 in 10.0 mi SSE 17.3 mph 24.2 mph N/A   Scattered Clouds
2:15 PM 69.6 °F - 36.9 °F 30% 30.15 in 10.0 mi South 13.8 mph 24.2 mph N/A   Clear
2:35 PM 69.8 °F - 36.1 °F 29% 30.14 in 10.0 mi South 16.1 mph 21.9 mph N/A   Clear
2:55 PM 70.5 °F - 35.8 °F 28% 30.14 in 10.0 mi South 15.0 mph 20.7 mph N/A   Clear
3:15 PM 70.5 °F - 35.4 °F 28% 30.13 in 10.0 mi South 13.8 mph 23.0 mph N/A   Clear
3:35 PM 71.2 °F - 36.5 °F 28% 30.12 in 10.0 mi South 17.3 mph 21.9 mph N/A   Clear
3:55 PM 70.7 °F - 36.7 °F 29% 30.12 in 10.0 mi South 19.6 mph 24.2 mph N/A   Clear
4:15 PM 70.5 °F - 35.2 °F 27% 30.12 in 10.0 mi South 20.7 mph - N/A   Clear
4:35 PM 70.3 °F - 36.1 °F 29% 30.11 in 10.0 mi South 16.1 mph 25.3 mph N/A   Clear
4:55 PM 70.7 °F - 36.9 °F 29% 30.11 in 10.0 mi South 17.3 mph 25.3 mph N/A   Clear
5:15 PM 70.7 °F - 36.1 °F 28% 30.10 in 10.0 mi South 21.9 mph 25.3 mph N/A   Clear
5:35 PM 70.2 °F - 36.1 °F 29% 30.10 in 10.0 mi South 18.4 mph 24.2 mph N/A   Clear
5:55 PM 69.4 °F - 36.7 °F 30% 30.09 in 10.0 mi South 18.4 mph - N/A   Clear
6:15 PM 68.9 °F - 36.7 °F 31% 30.09 in 10.0 mi South 16.1 mph - N/A   Clear
6:35 PM 67.8 °F - 37.9 °F 33% 30.08 in 10.0 mi South 15.0 mph 18.4 mph N/A   Clear
6:55 PM 67.5 °F - 38.3 °F 34% 30.08 in 10.0 mi South 15.0 mph - N/A   Clear
7:15 PM 66.4 °F - 39.4 °F 37% 30.08 in 10.0 mi South 15.0 mph 18.4 mph N/A   Clear
7:35 PM 64.9 °F - 40.6 °F 41% 30.07 in 10.0 mi SSE 11.5 mph - N/A   Clear
7:55 PM 63.3 °F - 41.5 °F 45% 30.07 in 10.0 mi SSE 11.5 mph - N/A   Clear
8:15 PM 62.1 °F - 41.4 °F 47% 30.07 in 10.0 mi SSE 11.5 mph - N/A   Clear
8:35 PM 60.8 °F - 41.9 °F 50% 30.06 in 10.0 mi SSE 11.5 mph - N/A   Scattered Clouds
8:55 PM 60.3 °F - 42.1 °F 51% 30.07 in 10.0 mi SE 11.5 mph - N/A   Mostly Cloudy
9:15 PM 60.1 °F - 41.7 °F 51% 30.07 in 10.0 mi SE 11.5 mph - N/A   Mostly Cloudy
9:35 PM 59.2 °F - 42.1 °F 53% 30.07 in 10.0 mi SE 11.5 mph - N/A   Scattered Clouds
9:55 PM 57.7 °F - 42.3 °F 56% 30.07 in 10.0 mi SE 10.4 mph - N/A   Scattered Clouds
10:15 PM 58.1 °F - 41.7 °F 54% 30.08 in 10.0 mi SSE 10.4 mph - N/A   Scattered Clouds
10:35 PM 57.2 °F - 42.1 °F 57% 30.08 in 10.0 mi SE 10.4 mph - N/A   Scattered Clouds
10:55 PM 57.2 °F - 41.9 °F 57% 30.08 in 10.0 mi SE 10.4 mph - N/A   Mostly Cloudy
11:15 PM 57.7 °F - 41.5 °F 55% 30.08 in 10.0 mi SE 12.7 mph - N/A   Overcast
11:35 PM 57.4 °F - 41.4 °F 55% 30.08 in 10.0 mi SE 10.4 mph - N/A   Mostly Cloudy
11:55 PM 57.7 °F - 41.0 °F 54% 30.08 in 10.0 mi SE 11.5 mph - N/A   Mostly Cloudy